Time,TemperatureF,DewpointF,PressureIn,WindDirection,WindDirectionDegrees,WindSpeedMPH,WindSpeedGustMPH,Humidity,HourlyPrecipIn,Conditions,Clouds,dailyrainin,SoftwareType,DateUTC
2013-04-19 06:38:00,62.2,60.2,29.89,South,191,13.0,13.0,93,0.00,,,0.01,Wunderground v.1.15,2013-04-19 10:38:00,
2013-04-19 06:42:00,62.1,60.4,29.90,SSW,196,13.0,13.0,94,0.00,,,0.01,Wunderground v.1.15,2013-04-19 10:42:00,
2013-04-19 06:43:00,62.1,60.4,29.90,SSW,192,13.0,13.0,94,0.00,,,0.01,Wunderground v.1.15,2013-04-19 10:43:00,
2013-04-19 06:49:00,62.0,60.3,29.90,SSW,203,14.0,25.0,94,0.00,,,0.01,Wunderground v.1.15,2013-04-19 10:49:00,
2013-04-19 06:50:00,62.0,60.3,29.90,SSW,207,14.0,15.0,94,0.00,,,0.01,Wunderground v.1.15,2013-04-19 10:50:00,
2013-04-19 06:55:00,62.0,60.3,29.91,SW,215,13.0,16.0,94,0.00,,,0.01,Wunderground v.1.15,2013-04-19 10:55:00,
2013-04-19 07:04:00,62.0,60.3,29.91,SSW,213,15.0,15.0,94,0.00,,,0.01,Wunderground v.1.15,2013-04-19 11:04:00,
2013-04-19 07:14:00,62.2,60.2,29.91,SSE,164,15.0,15.0,93,0.00,,,0.01,Wunderground v.1.15,2013-04-19 11:14:00,
2013-04-19 07:19:00,62.0,60.3,29.91,SSW,192,15.0,16.0,94,0.00,,,0.01,Wunderground v.1.15,2013-04-19 11:19:00,
2013-04-19 07:24:00,62.3,60.2,29.91,SSW,207,14.0,15.0,93,0.00,,,0.01,Wunderground v.1.15,2013-04-19 11:24:00,
2013-04-19 07:29:00,62.3,60.2,29.91,South,190,13.0,15.0,93,0.00,,,0.01,Wunderground v.1.15,2013-04-19 11:29:00,
2013-04-19 07:35:00,62.4,60.3,29.91,SSW,199,10.0,29.0,93,0.00,,,0.01,Wunderground v.1.15,2013-04-19 11:35:00,
2013-04-19 07:40:00,62.4,60.3,29.91,SW,233,12.0,29.0,93,0.00,,,0.01,Wunderground v.1.15,2013-04-19 11:40:00,
2013-04-19 07:48:00,62.6,60.2,29.91,SSE,162,15.0,29.0,92,0.00,,,0.01,Wunderground v.1.15,2013-04-19 11:48:00,
2013-04-19 07:54:00,62.6,60.2,29.91,WSW,248,13.0,29.0,92,0.00,,,0.01,Wunderground v.1.15,2013-04-19 11:54:00,
2013-04-19 07:59:00,62.6,60.2,29.91,SSW,213,14.0,29.0,92,0.00,,,0.01,Wunderground v.1.15,2013-04-19 11:59:00,
2013-04-19 08:04:00,62.6,60.2,29.91,SSE,148,14.0,14.0,92,0.00,,,0.01,Wunderground v.1.15,2013-04-19 12:04:00,
2013-04-19 08:26:00,62.5,60.1,29.91,South,187,14.0,14.0,92,0.00,,,0.02,Wunderground v.1.15,2013-04-19 12:26:00,
2013-04-19 08:31:00,62.7,60.0,29.91,South,177,15.0,34.0,91,0.00,,,0.03,Wunderground v.1.15,2013-04-19 12:31:00,
2013-04-19 08:36:00,62.9,59.9,29.91,SSW,205,16.0,20.0,90,0.00,,,0.03,Wunderground v.1.15,2013-04-19 12:36:00,
2013-04-19 08:42:00,63.0,60.0,29.90,SW,217,15.0,20.0,90,0.00,,,0.03,Wunderground v.1.15,2013-04-19 12:42:00,
2013-04-19 08:47:00,62.9,59.9,29.90,South,179,14.0,14.0,90,0.00,,,0.03,Wunderground v.1.15,2013-04-19 12:47:00,
2013-04-19 08:52:00,62.8,60.1,29.90,SSW,211,13.0,14.0,91,0.00,,,0.03,Wunderground v.1.15,2013-04-19 12:52:00,
2013-04-19 08:58:00,62.7,60.0,29.89,SW,222,12.0,19.0,91,0.00,,,0.03,Wunderground v.1.15,2013-04-19 12:58:00,
2013-04-19 09:03:00,62.7,60.0,29.89,SSW,198,13.0,31.0,91,0.00,,,0.03,Wunderground v.1.15,2013-04-19 13:03:00,
2013-04-19 09:09:00,62.8,60.1,29.89,South,169,14.0,31.0,91,0.00,,,0.03,Wunderground v.1.15,2013-04-19 13:09:00,
2013-04-19 09:15:00,62.8,60.1,29.89,SE,146,16.0,31.0,91,0.00,,,0.03,Wunderground v.1.15,2013-04-19 13:15:00,
2013-04-19 09:20:00,62.7,60.0,29.89,WSW,237,18.0,31.0,91,0.00,,,0.03,Wunderground v.1.15,2013-04-19 13:20:00,
2013-04-19 09:25:00,62.5,60.1,29.89,SW,217,16.0,31.0,92,0.00,,,0.04,Wunderground v.1.15,2013-04-19 13:25:00,
2013-04-19 09:30:00,62.4,60.0,29.89,SW,224,15.0,24.0,92,0.00,,,0.04,Wunderground v.1.15,2013-04-19 13:30:00,
2013-04-19 13:45:00,63.4,61.6,29.82,SW,229,20.0,37.0,94,0.23,,,0.41,Wunderground v.1.15,2013-04-19 17:45:00,
2013-04-19 13:51:00,63.2,61.7,29.83,SW,219,17.0,20.0,95,0.33,,,0.44,Wunderground v.1.15,2013-04-19 17:51:00,
2013-04-19 13:57:00,63.1,61.6,29.84,WSW,245,15.0,18.0,95,0.63,,,0.49,Wunderground v.1.15,2013-04-19 17:57:00,
2013-04-19 14:02:00,63.0,61.5,29.84,SW,218,14.0,18.0,95,0.55,,,0.54,Wunderground v.1.15,2013-04-19 18:02:00,
2013-04-19 14:07:00,63.1,61.6,29.84,SW,225,14.0,20.0,95,0.66,,,0.59,Wunderground v.1.15,2013-04-19 18:07:00,
2013-04-19 14:12:00,63.2,61.4,29.83,SW,219,14.0,23.0,94,0.40,,,0.62,Wunderground v.1.15,2013-04-19 18:12:00,
2013-04-19 17:35:00,59.7,57.1,29.81,South,190,8.0,38.0,91,0.00,,,0.83,Wunderground v.1.15,2013-04-19 21:35:00,
2013-04-19 17:58:00,58.9,56.6,29.77,South,185,7.0,7.0,92,0.00,,,0.83,Wunderground v.1.15,2013-04-19 21:58:00,
2013-04-19 18:12:00,-999.9,-99.9,-32.77,North,32767,-999.0,38.0,255,-99.99,,,0.83,Wunderground v.1.15,2013-04-19 22:12:00,
2013-04-19 18:19:00,58.7,56.1,29.83,WSW,251,8.0,38.0,91,0.00,,,0.83,Wunderground v.1.15,2013-04-19 22:19:00,
2013-04-19 18:24:00,58.7,56.1,29.82,WSW,257,10.0,11.0,91,0.00,,,0.83,Wunderground v.1.15,2013-04-19 22:24:00,
2013-04-19 18:30:00,58.0,55.1,29.81,NNW,348,9.0,9.0,90,0.00,,,0.83,Wunderground v.1.15,2013-04-19 22:30:00,
2013-04-19 18:35:00,56.4,53.5,29.80,WNW,295,9.0,11.0,90,0.00,,,0.83,Wunderground v.1.15,2013-04-19 22:35:00,
2013-04-19 18:40:00,55.4,53.1,29.81,NW,323,8.0,8.0,92,0.00,,,0.83,Wunderground v.1.15,2013-04-19 22:40:00,
2013-04-19 18:45:00,54.7,52.1,29.80,NNW,327,7.0,9.0,91,0.00,,,0.83,Wunderground v.1.15,2013-04-19 22:45:00,
2013-04-19 18:50:00,54.0,51.1,29.81,NNW,331,7.0,10.0,90,0.00,,,0.83,Wunderground v.1.15,2013-04-19 22:50:00,
2013-04-19 18:56:00,53.4,50.5,29.81,NW,306,8.0,10.0,90,0.00,,,0.83,Wunderground v.1.15,2013-04-19 22:56:00,
2013-04-19 19:01:00,53.2,50.6,29.80,WNW,302,8.0,15.0,91,0.00,,,0.83,Wunderground v.1.15,2013-04-19 23:01:00,
2013-04-19 19:06:00,52.9,50.0,29.81,NNW,342,7.0,15.0,90,0.00,,,0.83,Wunderground v.1.15,2013-04-19 23:06:00,
2013-04-19 19:11:00,52.7,49.8,29.80,NW,317,7.0,15.0,90,0.00,,,0.83,Wunderground v.1.15,2013-04-19 23:11:00,
2013-04-19 19:16:00,52.6,50.0,29.82,West,274,7.0,15.0,91,0.00,,,0.83,Wunderground v.1.15,2013-04-19 23:16:00,
2013-04-19 19:22:00,52.4,49.8,29.82,WNW,295,7.0,15.0,91,0.00,,,0.83,Wunderground v.1.15,2013-04-19 23:22:00,
2013-04-19 19:27:00,52.2,49.4,29.82,WNW,291,7.0,15.0,90,0.00,,,0.83,Wunderground v.1.15,2013-04-19 23:27:00,
2013-04-19 19:32:00,52.1,49.6,29.81,NW,319,6.0,15.0,91,0.00,,,0.83,Wunderground v.1.15,2013-04-19 23:32:00,
2013-04-19 19:37:00,51.9,49.1,29.82,WNW,291,6.0,15.0,90,0.00,,,0.83,Wunderground v.1.15,2013-04-19 23:37:00,
2013-04-19 19:42:00,51.8,48.7,29.82,WNW,294,7.0,15.0,89,0.00,,,0.83,Wunderground v.1.15,2013-04-19 23:42:00,
2013-04-19 19:48:00,51.6,47.9,29.82,NNW,338,7.0,15.0,87,0.00,,,0.83,Wunderground v.1.15,2013-04-19 23:48:00,
2013-04-19 19:53:00,51.4,46.7,29.82,WNW,297,6.0,15.0,84,0.00,,,0.83,Wunderground v.1.15,2013-04-19 23:53:00,
2013-04-19 19:58:00,51.2,46.5,29.83,West,275,8.0,15.0,84,0.00,,,0.83,Wunderground v.1.15,2013-04-19 23:58:00,
2013-04-19 20:03:00,51.0,46.3,29.83,NW,314,8.0,15.0,84,0.00,,,0.83,Wunderground v.1.15,2013-04-20 00:03:00,
2013-04-19 20:08:00,50.7,46.0,29.83,NW,323,8.0,15.0,84,0.00,,,0.83,Wunderground v.1.15,2013-04-20 00:08:00,
2013-04-19 20:14:00,50.4,46.1,29.84,NW,304,7.0,15.0,85,0.00,,,0.83,Wunderground v.1.15,2013-04-20 00:14:00,
2013-04-19 20:19:00,50.3,46.0,29.83,North,360,5.0,15.0,85,0.00,,,0.83,Wunderground v.1.15,2013-04-20 00:19:00,
2013-04-19 20:24:00,50.1,46.1,29.84,NW,321,4.0,15.0,86,0.00,,,0.83,Wunderground v.1.15,2013-04-20 00:24:00,
2013-04-19 20:29:00,50.0,45.7,29.84,NNW,346,4.0,15.0,85,0.00,,,0.83,Wunderground v.1.15,2013-04-20 00:29:00,
2013-04-19 20:34:00,49.9,45.9,29.85,North,351,3.0,15.0,86,0.00,,,0.83,Wunderground v.1.15,2013-04-20 00:34:00,
2013-04-19 20:40:00,49.8,45.5,29.85,NNW,344,1.0,15.0,85,0.00,,,0.83,Wunderground v.1.15,2013-04-20 00:40:00,
2013-04-19 20:45:00,49.7,45.4,29.85,NNW,345,2.0,15.0,85,0.00,,,0.83,Wunderground v.1.15,2013-04-20 00:45:00,
2013-04-19 20:50:00,49.5,45.5,29.86,NW,315,4.0,15.0,86,0.00,,,0.83,Wunderground v.1.15,2013-04-20 00:50:00,
2013-04-19 20:55:00,49.3,45.3,29.86,West,277,5.0,15.0,86,0.00,,,0.83,Wunderground v.1.15,2013-04-20 00:55:00,
2013-04-19 21:00:00,49.2,44.9,29.86,NNW,346,5.0,15.0,85,0.00,,,0.83,Wunderground v.1.15,2013-04-20 01:00:00,
2013-04-19 21:06:00,48.9,44.9,29.86,NNE,22,5.0,15.0,86,0.00,,,0.83,Wunderground v.1.15,2013-04-20 01:06:00,
2013-04-19 21:11:00,48.7,44.4,29.87,NNW,344,8.0,15.0,85,0.00,,,0.83,Wunderground v.1.15,2013-04-20 01:11:00,
2013-04-19 21:16:00,48.6,44.3,29.88,NNW,343,9.0,15.0,85,0.00,,,0.83,Wunderground v.1.15,2013-04-20 01:16:00,
2013-04-19 21:21:00,48.5,43.9,29.88,NNW,340,9.0,15.0,84,0.00,,,0.83,Wunderground v.1.15,2013-04-20 01:21:00,
2013-04-19 21:26:00,48.3,43.4,29.88,WNW,289,8.0,15.0,83,0.00,,,0.83,Wunderground v.1.15,2013-04-20 01:26:00,
2013-04-19 21:32:00,48.1,43.2,29.89,NNW,329,8.0,15.0,83,0.00,,,0.83,Wunderground v.1.15,2013-04-20 01:32:00,
2013-04-19 21:37:00,47.8,42.6,29.89,NW,326,9.0,15.0,82,0.00,,,0.83,Wunderground v.1.15,2013-04-20 01:37:00,
2013-04-19 21:42:00,47.6,42.1,29.90,NW,313,10.0,15.0,81,0.00,,,0.83,Wunderground v.1.15,2013-04-20 01:42:00,
2013-04-19 21:47:00,47.5,41.6,29.91,NW,313,9.0,15.0,80,0.00,,,0.83,Wunderground v.1.15,2013-04-20 01:47:00,
2013-04-19 21:52:00,47.3,40.5,29.91,WNW,294,8.0,18.0,77,0.00,,,0.83,Wunderground v.1.15,2013-04-20 01:52:00,
2013-04-19 21:58:00,47.1,40.3,29.92,North,349,11.0,18.0,77,0.00,,,0.83,Wunderground v.1.15,2013-04-20 01:58:00,
2013-04-19 22:03:00,46.8,40.3,29.93,North,5,11.0,18.0,78,0.00,,,0.83,Wunderground v.1.15,2013-04-20 02:03:00,
2013-04-19 22:08:00,46.7,40.2,29.93,NW,318,8.0,18.0,78,0.00,,,0.83,Wunderground v.1.15,2013-04-20 02:08:00,
2013-04-19 22:13:00,46.4,39.9,29.94,WNW,300,8.0,15.0,78,0.00,,,0.83,Wunderground v.1.15,2013-04-20 02:13:00,